Location: Broekland
(52.3610°N, 6.2005°E)
Time: 06:32:22
(UTC+00:00)

CZ-2C R/B - Pass Details

Date: 19 May 2025
Orbit: 631 x 693 km, 98.1° (Epoch: 14 June)

Event Time Altitude Azimuth Distance (km) Brightness Sun altitude
Rises 23:12:39 0° 10° (N) 2,943 8.5 -17.5°
Reaches altitude 10° 23:14:55 10° 4° (N) 2,027 7.5 -17.6°
Maximum altitude 23:19:06 44° 293° (WNW) 881 4.5 -17.6°
Enters shadow 23:21:47 20° 230° (SW) 1,469 5.1 -17.6°
